Location: El Álamo
(40.2307°N, 3.9945°W)
Time: 04:53:21
(UTC+00:00)

Cosmos 836 Rocket - Pass Details

Date: 19 May 2025
Orbit: 754 x 773 km, 74.1° (Epoch: 23 June)

Event Time Altitude Azimuth Distance (km) Brightness Sun altitude
Exits shadow 21:27:47 28° 176° (S) 1,398 5.4 -18.6°
Maximum altitude 21:30:26 62° 105° (ESE) 852 4.4 -19.0°
Drops below altitude 10° 21:35:33 10° 26° (NNE) 2,287 7.3 -19.6°
Sets 21:37:56 0° 23° (NNE) 3,215 8.1 -19.9°
